Regional Weather Roundup
Issued by NWS Newport/Morehead, NC

Current Version | Previous Version | Text Only | Print | Product List | Glossary Off
Versions: 1 2 3 4 5 6 7 8 9 10 11 12 13 14 15 16 17 18 19 20 21 22 23 24 25 26 27 28 29 30 31 32 33 34 35 36 37 38 39 40 41 42 43 44 45 46 47 48 49 50
589 ASUS42 KMHX 051913 RWRMHX WEATHER ROUNDUP FOR EASTERN NORTH CAROLINA NATIONAL WEATHER SERVICE NEWPORT/MOREHEAD CITY NC 200 PM EST FRI FEB 05 2016 NOTE: "FAIR" INDICATES FEW OR NO CLOUDS BELOW 12,000 FEET WITH NO SIGNIFICANT WEATHER AND/OR OBSTRUCTIONS TO VISIBILITY NCZ015>017-031-032-045>047-102-103-052000- NORTH COAST CITY SKY/WX TMP DP RH WIND PRES REMARKS EDENTON MOSUNNY 46 33 59 N20 30.27F ELIZABETH CITY MOSUNNY 44 30 57 NW21 30.26F KITTY HAWK CLOUDY 41 32 71 NW8G20 30.25S MANTEO CLOUDY 41 33 73 N15G23 30.26S $$ NCZ045>047-081-094-103-104-052000- CENTRAL COAST CITY SKY/WX TMP DP RH WIND PRES REMARKS FRISCO CLOUDY N/A N/A N/A N13G21 30.25S SWANQUARTER N/A 43 N/A N/A NW15G21 30.24S $$ NCZ095-097-098-100-101-052000- SOUTHERN COAST CITY SKY/WX TMP DP RH WIND PRES REMARKS BEAUFORT CLOUDY 44 32 62 N14G22 30.26F CEDAR ISLAND N/A 43 N/A N/A NW24G32 30.30S JACKSONVILLE PTSUNNY 46 31 55 N15G21 30.26F PINEY ISLAND CLOUDY N/A N/A N/A N17 30.25 WILMINGTON CLOUDY 47 30 51 NW14G21 30.28S $$ NCZ011>013-027>030-043-044-078>080-089-090>093-098-052000- COASTAL PLAIN CITY SKY/WX TMP DP RH WIND PRES REMARKS AHOSKIE SUNNY 43 26 50 N8 30.28F CLINTON SUNNY 47 28 47 NW9 30.29R ELIZABETHTOWN SUNNY 49 27 43 N7 30.29R GOLDSBORO SUNNY 46 27 46 N12G17 30.25F GREENVILLE PTSUNNY 45 32 61 N13G20 30.29S HAVELOCK CLOUDY 45 30 55 N17 30.26F KENANSVILLE N/A 46 29 50 N9G16 30.29S KINSTON MOSUNNY 46 30 53 N13G21 30.27F NEW BERN CLOUDY 45 31 58 N15 30.27F RICHLANDS PTSUNNY 45 28 53 NW8G17 30.27S ROCKY MOUNT SUNNY 46 26 45 N13 30.27F WASHINGTON MOSUNNY 45 30 55 NW6 30.27F WHITEVILLE SUNNY 48 28 45 N5 30.29R $$ AMZ130-135-150-152-154-156-158-170-250-252-270-ANZ085-086-088-633-658-670-052000- MARINE OBSERVATIONS STATION/POSITION TIME TEMP WIND PRES WAVE SWELL AIR SEA DIR/SP/G HT/PER HT/PER (UTC) (F) (DEG/KT/KT) (MB) (FT/S) (FT/S) CHESAPEAKE LIGHT 1900 40 330/ 26/ 30 1024.8 64 E VA BEACH 1850 43 54 330/ 27/ 35 1022.5 12/ 8 7/10 DUCK 1800 40 46 330/ 24/ 27 1023.5 2 E DUCK 1811 45 N/A 7/ 7 2/11 OREGON INLET 1800 41 48 320/ 18/ 25 1024.1 13E OREGON INLT 1900 47 N/A 11/ 8 3/11 HATTERAS CG 1800 42 54 330/ 27/ 31 1023.9 DIAMOND BUOY 1850 69 350/ 25/ 33 1023.4 8/ 9 3/ 9 CAPE LOOKOUT NOT AVBL BEAUFORT LAB 1800 44 53 350/ 16/ 23 1023.9 30 SE NEW RVR IN 1808 45 65 1022.6 30 SE NEW RVR IN 1825 65 N/A 6/ 5 27 SE WRIGHTSVLE NOT AVBL 5 SE WRIGHTSVLE 1808 46 54 360/ 17/ 23 1025.1 225 S CAPE HAT 1850 59 69 340/ 27/ 33 N/A 11/ 8 41 SE CHARLESTON 1850 49 68 360/ 19/ 23 1025.1 6/ 6 2/ 9 $$

USA.gov is the U.S. government's official web portal to all federal, state and local government web resources and services.